Regional Weather Roundup
Issued by NWS

Home | Current Version | Previous Version | Graphics & Text | Print | Product List | Glossary On
Versions: 1 2 3 4 5 6 7 8 9 10 11 12 13 14 15 16 17 18 19 20 21 22 23 24 25 26 27 28 29 30 31 32 33 34 35 36 37 38 39 40 41 42 43 44 45 46 47 48 49 50
000
ASUS43 KLMK 212202
RWRKY
KENTUCKY REGIONAL WEATHER ROUNDUP
NATIONAL WEATHER SERVICE LOUISVILLE KY
500 PM EST SUN DEC 21 2014

NOTE "FAIR" INDICATES FEW OR NO CLOUDS BELOW 12,000 FEET
WITH NO SIGNIFICANT WEATHER AND/OR OBSTRUCTIONS TO VISIBILITY.

KYZ001>023-026-027-061>063-070>075-212300-
WESTERN AND SOUTH CENTRAL KENTUCKY

CITY           SKY/WX    TMP DP  RH WIND       PRES   REMARKS
PADUCAH        CLEAR     48  32  53 E5        30.06S
HENDERSON      CLEAR     45  28  53 E6        30.09S
OWENSBORO      PTCLDY    45  30  55 SE8       30.11F
HOPKINSVILLE   PTCLDY    47  32  55 NE5       30.08R
BOWLING GREEN  PTCLDY    48  30  49 NE7       30.10S
GLASGOW        NOT AVBL
$$

KYZ024-025-028>034-038-045-046-053-212300-
NORTH CENTRAL KENTUCKY

CITY           SKY/WX    TMP DP  RH WIND       PRES   REMARKS
LOUISVILLE/SDF MOCLDY    42  29  59 E6        30.14F
LOUISVILLE/LOU PTCLDY    42  29  59 E7        30.15F
FORT KNOX      PTCLDY    40  29  62 NE6       30.11F
$$

KYZ035>037-039>044-047>052-055>060-089>105-212300-
NORTHEAST KENTUCKY

CITY           SKY/WX    TMP DP  RH WIND       PRES   REMARKS
LEXINGTON      PTCLDY    37  28  70 NE7       30.15S WCI  32
COVINGTON      MOCLDY    34  24  67 E6        30.17S WCI  29
FRANKFORT      MOCLDY    38  28  67 E8        30.14F WCI  32
$$

KYZ054-064>069-076>088-106>120-212300-
SOUTHEAST KENTUCKY

CITY           SKY/WX    TMP DP  RH WIND       PRES   REMARKS
JACKSON        CLEAR     41  26  55 CALM      30.12F
LONDON         CLEAR     48  28  46 N3        30.12R
SOMERSET       NOT AVBL
MIDDLESBORO    NOT AVBL
MONTICELLO     CLEAR     46  30  54 N8        30.13F
$$




USA.gov is the U.S. government's official web portal to all federal, state and local government web resources and services.